Location: The C. Gantt Observatory
(33.6981°N, 81.6836°W)
Time: 10:52:40
(UTC-05:00)

Daily predictions for brighter satellites

Satellite Brightness Start Highest point End
(mag) Time Altitude Azimuth Time Altitude Azimuth Time Altitude Azimuth
Cosmos 2322 Rocket 3.2 18:33:35 10° N 18:38:12 26° ENE 18:42:47 10° ESE
Nadezhda 1 Rocket 4.1 18:40:37 10° N 18:46:30 49° E 18:52:20 10° SSE
Meteor 1-28 Rocket 3.4 18:42:57 10° N 18:46:45 78° WNW 18:50:33 10° SSW
Cosmos 1818 4.1 18:42:14 10° S 18:47:12 38° ESE 18:52:12 10° NE
Meteor 1-25 Rocket 4.2 18:42:55 10° S 18:48:22 61° E 18:53:56 10° NNE
Tiangong 2 3.2 18:46:30 10° NW 18:48:28 16° N 18:50:27 10° NE
Resurs 01 Rocket 3.0 18:48:05 10° ESE 18:51:02 18° ENE 18:53:59 10° NNE
Cosmos 1346 Rocket 2.8 18:47:43 10° N 18:51:40 84° W 18:55:33 10° S
Helios 1B rocket 4.2 18:56:56 12° E 18:57:35 12° E 18:59:22 10° ESE
H-2A R/B 4.3 18:58:38 12° E 19:00:18 16° ENE 19:02:33 10° NNE
FENGYUN 3A 4.3 18:56:16 10° SE 19:01:03 34° ENE 19:05:52 10° N
DELTA 2 R/B (1) 4.2 18:55:55 10° WNW 19:01:18 46° N 19:05:58 13° ENE
Cosmos 44 3.6 18:57:44 10° N 19:01:49 36° ENE 19:05:47 10° SE
deb Kosmos-1763 4.1 19:01:39 10° SSW 19:05:26 83° ESE 19:09:14 10° NNE
Cosmos 676 Rocket 4.1 19:08:03 10° S 19:13:03 53° ESE 19:18:06 10° NNE
Cosmos 1812 2.6 19:09:20 10° N 19:13:12 74° E 19:17:02 10° S
Cosmos 407 Rocket 3.4 19:08:12 10° SSW 19:13:24 82° ESE 19:18:41 10° NNE
Cosmos 1709 Rocket 4.0 19:08:56 10° SSE 19:15:02 56° E 19:21:05 10° NNE
Cosmos 1992 Rocket 4.1 19:10:19 10° NNW 19:15:34 83° WSW 19:20:48 10° SSE
CZ-3C R/B 3.3 19:08:38 10° WSW 19:16:08 20° SSW 19:19:17 10° SSE
Resurs 1-3 4.4 19:14:47 10° SE 19:18:34 29° ENE 19:22:22 10° NNE
Cosmos 1300 Rocket 3.9 19:18:36 10° SSE 19:22:41 39° E 19:26:48 10° NNE
ERBS 2.7 19:20:29 10° NW 19:23:56 65° SW 19:27:11 11° SSE
ATLAS 2A CENTAUR R/B 2.7 19:23:25 10° SW 19:25:49 29° S 19:29:16 17° ESE
FREGAT/IRIS 3.0 19:24:15 10° S 19:27:18 66° W 19:30:22 10° NNW
OAO 3 Copernicus 4.3 19:22:21 10° W 19:27:26 76° N 19:30:12 27° E
Cosmos 2360 Rocket 3.1 19:27:04 10° N 19:31:50 27° ENE 19:32:44 26° ENE
Cosmos 1602 3.8 19:28:14 10° S 19:31:59 53° E 19:35:46 10° NNE
Cosmos 1980 Rocket 4.0 19:27:27 10° NW 19:32:31 34° WSW 19:37:36 10° SSW
Cosmos 2151 Rocket 4.2 19:32:42 10° SSW 19:37:06 59° W 19:41:34 10° N
GPS 2-04 Rocket1 4.4 19:36:48 10° SSW 19:40:06 21° SSE 19:40:13 21° SSE
ALOS 2.2 19:35:32 10° SSE 19:40:11 87° ENE 19:44:53 10° N
SJ-6B 3.7 19:37:17 10° S 19:41:15 51° W 19:45:10 10° NNW
TSX-5 3.4 19:40:16 10° SSW 19:43:34 71° WNW 19:44:47 34° N
Cosmos 1140 Rocket 3.4 19:39:12 10° S 19:44:14 63° ESE 19:49:19 10° NNE
Cosmos 1833 4.1 19:38:45 10° SSW 19:44:28 80° ESE 19:50:10 10° NNE
SL-8 R/B 3.8 19:39:46 10° NW 19:44:35 75° SW 19:47:05 28° SE
Spot 2 Rocket 3.3 19:42:55 10° SSE 19:47:56 76° ENE 19:53:00 10° N
FengYun 1-2 T 4.2 19:43:56 10° SSE 19:49:25 85° W 19:54:55 10° NNW
Okean 1 Rocket 3.0 19:45:05 10° S 19:49:30 63° E 19:53:56 10° NNE
Gbstr 26 Del rocket 2.7 19:47:05 10° SSW 19:50:42 58° SSE 19:50:42 58° SSE
Cosmos 1850 Rocket 4.2 19:49:22 10° S 19:54:24 47° ESE 19:54:47 47° E
Cosmos 1461 2.7 19:52:37 10° NNW 19:56:31 68° NE 19:56:31 68° NE
Meteor 1-19 Rocket 4.1 19:53:04 10° N 19:58:44 69° E 20:04:27 10° SSE
Helios 1A 4.1 20:02:04 31° N 20:02:04 31° N 20:04:25 10° N
Cosmos 614 Rocket 3.8 19:56:12 10° S 20:01:15 68° ESE 20:02:45 44° NE
Cosmos 1633 3.4 19:57:47 10° SSW 20:01:21 50° W 20:04:57 10° N
ASTRO E2 3.4 19:58:30 10° W 20:02:20 42° SSW 20:02:28 42° S
SL-16 R/B 2.7 19:57:26 10° NNW 20:02:59 58° WSW 20:08:31 10° S
ATLAS CENTAUR R/B 3.6 20:01:17 10° SSW 20:04:45 25° S 20:04:45 25° S
H-2A R/B (2) 3.0 20:07:24 10° SW 20:08:37 20° SSW 20:08:37 20° SSW
Meteor 1-5 Rocket 4.4 20:04:13 10° S 20:15:03 14° NNE 20:15:49 10° NNE
Meteor 1-13 Rocket 4.2 20:05:07 10° N 20:10:40 79° W 20:16:17 10° S
CENTAUR R/B 4.5 20:04:02 10° NW 20:11:20 38° WSW 20:18:51 10° S
SL-24 R/B 4.4 20:08:21 24° SSE 20:11:29 79° E 20:16:58 10° N
Cosmos 1340 3.7 20:14:19 10° NNW 20:17:56 44° W 20:18:12 43° WSW
Cosmos 2322 Rocket 3.6 20:17:10 10° NW 20:22:15 36° WSW 20:27:20 10° S
Tiangong 2 4.2 20:22:37 10° NW 20:22:55 12° NW 20:22:55 12° NW
Resurs 01 Rocket 3.2 20:23:14 10° SSW 20:27:13 33° W 20:31:13 10° NNW
Cosmos 2322 3.9 20:25:57 10° NNW 20:30:39 61° N 20:30:39 61° N
Helios 1B rocket 3.7 20:33:19 39° W 20:33:19 39° W 20:36:54 10° SW
Meteor 2-4 Rocket 4.0 20:35:19 10° NNW 20:40:14 63° NW 20:40:14 63° NW
COSMOS 2428 4.4 20:36:55 10° N 20:39:00 22° N 20:39:00 22° N
DELTA 2 R/B (1) 4.4 20:42:43 10° WNW 20:46:45 45° NW 20:46:45 45° NW
Cosmos 2360 Rocket 3.8 21:10:44 10° NW 21:14:35 31° WNW 21:14:35 31° WNW
